DH0GMA Weather Reports


time (UTC)temp
C
wind
direction
speed
KPH
gust
KPH
rain 1hr
cm
rain 24hr
cm
rain mn
cm
humidity
%
barometer
mb
20260507130627 12 161 4.8 11.3 0.00 0.61 0.08 80 1014.6
20260507125627 12 254 1.6 9.7 0.00 0.61 0.08 81 1014.6
20260507124627 12 255 1.6 6.4 0.00 0.61 0.08 84 1014.6
20260507123627 12 143 1.6 6.4 0.00 0.61 0.08 86 1014.6
20260507122627 11 249 0.0 4.8 0.00 0.61 0.08 86 1014.6
20260507121627 11 176 3.2 9.7 0.00 0.61 0.08 85 1014.4
20260507120627 12 178 1.6 6.4 0.00 0.61 0.08 86 1014.4
20260507115627 11 267 1.6 4.8 0.00 0.61 0.08 87 1014.4
20260507114627 11 163 1.6 6.4 0.03 0.61 0.08 86 1014.5
20260507113626 11 260 0.0 6.4 0.03 0.61 0.08 88 1014.3
20260507112626 11 258 3.2 8.0 0.03 0.61 0.08 89 1014.4
20260507111626 11 164 0.0 6.4 0.03 0.61 0.08 89 1014.4
20260507110626 11 143 3.2 6.4 0.03 0.61 0.08 89 1014.4
20260507105626 11 172 3.2 6.4 0.03 0.61 0.08 88 1014.4
20260507104626 11 244 3.2 8.0 0.00 0.61 0.05 87 1014.4
20260507103626 11 193 3.2 4.8 0.00 0.61 0.05 88 1014.4
20260507102627 10 149 1.6 9.7 0.00 0.61 0.05 88 1014.3
20260507101628 10 154 4.8 9.7 0.00 0.61 0.05 88 1014.3
20260507100628 10 160 1.6 6.4 0.00 0.61 0.05 88 1014.3
20260507095627 10 220 3.2 9.7 0.00 0.61 0.05 88 1014.3
20260507094627 10 258 1.6 4.8 0.00 0.61 0.05 88 1014.3
20260507093627 10 202 3.2 12.9 0.00 0.61 0.05 88 1014.1
20260507092627 10 223 3.2 8.0 0.00 0.61 0.05 89 1014.0
20260507091627 10 241 4.8 9.7 0.00 0.61 0.05 89 1014.0
20260507090627 10 274 1.6 4.8 0.00 0.61 0.05 89 1013.9
20260507085627 10 241 3.2 6.4 0.00 0.61 0.05 89 1013.7
20260507084626 10 277 3.2 6.4 0.00 0.61 0.05 89 1013.6
20260507083626 10 179 3.2 12.9 0.03 0.61 0.05 91 1013.5
20260507082626 10 285 1.6 8.0 0.03 0.61 0.05 92 1013.6
20260507081626 10 139 1.6 6.4 0.03 0.61 0.05 92 1013.5
20260507080626 10 257 6.4 11.3 0.03 0.61 0.05 92 1013.5
20260507075627 9 157 4.8 12.9 0.03 0.61 0.05 92 1013.4
20260507074626 9 259 4.8 14.5 0.03 0.61 0.05 92 1013.5
20260507073626 9 154 3.2 6.4 0.03 0.58 0.05 93 1013.3
20260507072626 9 164 4.8 6.4 0.03 0.58 0.05 93 1013.3
20260507071626 8 245 1.6 6.4 0.05 0.58 0.05 92 1013.2
20260507070628 8 267 1.6 4.8 0.05 0.58 0.05 92 1013.1
20260507065628 8 283 1.6 4.8 0.05 0.58 0.05 92 1013.0
20260507064627 8 256 1.6 8.0 0.05 0.58 0.05 92 1012.9
20260507063627 8 219 1.6 9.7 0.03 0.56 0.03 92 1012.8
20260507062627 8 203 1.6 6.4 0.03 0.56 0.03 92 1012.8
20260507061627 8 196 1.6 9.7 0.00 0.53 0.00 91 1012.8
20260507060627 9 163 3.2 12.9 0.00 0.53 0.00 91 1012.7
20260507055627 8 195 1.6 6.4 0.00 0.53 0.00 92 1012.6
20260507054627 8 159 3.2 8.0 0.00 0.53 0.00 92 1012.4
20260507053627 8 148 4.8 8.0 0.00 0.53 0.00 92 1012.4
20260507052627 8 269 1.6 6.4 0.00 0.53 0.00 91 1012.4
20260507051627 8 174 3.2 8.0 0.00 0.53 0.00 91 1012.2
20260507050626 8 191 3.2 4.8 0.00 0.53 0.00 91 1012.2
20260507045626 8 213 3.2 4.8 0.00 0.53 0.00 91 1012.0
20260507044626 8 197 1.6 8.0 0.00 0.53 0.00 91 1012.0
20260507043626 8 187 3.2 6.4 0.00 0.53 0.00 91 1011.8
20260507042626 8 214 0.0 4.8 0.00 0.53 0.00 91 1011.6
20260507041626 7 246 3.2 8.0 0.00 0.53 0.00 92 1011.4
20260507040628 7 243 4.8 12.9 0.00 0.53 0.00 92 1011.3
20260507035628 7 170 1.6 8.0 0.00 0.53 0.00 92 1011.3
20260507034626 7 177 1.6 6.4 0.00 0.53 0.00 92 1011.3
20260507033626 7 197 3.2 6.4 0.00 0.53 0.00 92 1011.3
20260507032626 7 201 1.6 4.8 0.00 0.53 0.00 92 1011.1
20260507031626 7 167 1.6 4.8 0.00 0.53 0.00 91 1011.1
20260507030626 7 209 3.2 6.4 0.00 0.53 0.00 91 1011.0
20260507025626 7 267 0.0 4.8 0.00 0.53 0.00 92 1010.9
20260507024626 7 227 1.6 6.4 0.00 0.53 0.00 91 1010.9
20260507023626 7 156 3.2 9.7 0.00 0.53 0.00 91 1010.7
20260507022627 7 193 3.2 6.4 0.00 0.53 0.00 91 1010.8
20260507021627 7 181 3.2 8.0 0.00 0.53 0.00 92 1010.8
20260507020627 7 275 3.2 11.3 0.00 0.53 0.00 92 1010.8
20260507015627 7 160 6.4 11.3 0.00 0.53 0.00 92 1010.7
20260507014627 7 273 3.2 11.3 0.00 0.53 0.00 92 1010.7
20260507013627 7 273 4.8 11.3 0.00 0.53 0.00 92 1010.6
20260507012627 7 158 4.8 14.5 0.00 0.53 0.00 92 1010.6
20260507011627 7 215 3.2 9.7 0.00 0.53 0.00 93 1010.4
20260507010626 7 149 3.2 9.7 0.00 0.53 0.00 92 1010.4
20260507005626 7 166 4.8 8.0 0.00 0.53 0.00 92 1010.4
20260507004626 7 199 4.8 8.0 0.00 0.53 0.00 92 1010.2
20260507003626 7 195 3.2 9.7 0.00 0.53 0.00 93 1010.3
20260507002626 7 185 4.8 8.0 0.00 0.53 0.00 93 1010.4
20260507001626 7 142 1.6 4.8 0.00 0.53 0.00 92 1010.4
20260507000626 7 196 1.6 6.4 0.00 0.53 0.00 92 1010.5
20260506235626 7 213 4.8 6.4 0.00 0.53 0.00 92 1010.4
20260506234626 7 159 4.8 6.4 0.00 0.53 0.00 92 1010.4
20260506233625 7 168 1.6 6.4 0.00 0.53 0.00 91 1010.4
20260506232627 7 160 1.6 4.8 0.00 0.53 0.00 91 1010.5
20260506231627 8 147 3.2 9.7 0.00 0.53 0.00 91 1010.4
20260506230627 8 148 0.0 1.6 0.00 0.53 0.00 91 1010.4
20260506225627 8 144 0.0 6.4 0.00 0.53 0.00 91 1010.3
20260506224627 8 175 3.2 6.4 0.00 0.53 0.00 91 1010.3
20260506223627 8 185 1.6 6.4 0.00 0.53 0.00 91 1010.2
20260506222627 8 185 3.2 8.0 0.00 0.53 0.00 91 1010.4
20260506221626 8 176 3.2 6.4 0.00 0.53 0.00 90 1010.2
20260506220626 8 157 3.2 8.0 0.00 0.53 0.00 90 1010.1
20260506215626 8 168 3.2 8.0 0.00 0.53 0.53 90 1010.0
20260506214626 8 172 3.2 6.4 0.00 0.53 0.53 90 1009.9
20260506213626 8 170 1.6 4.8 0.00 0.53 0.53 90 1009.9
20260506212626 8 172 1.6 9.7 0.00 0.53 0.53 90 1009.8
20260506211626 8 167 1.6 4.8 0.00 0.53 0.53 90 1009.8
20260506210626 8 253 3.2 9.7 0.00 0.53 0.53 90 1009.7
20260506205626 9 151 3.2 6.4 0.00 0.53 0.53 90 1009.6
20260506204625 9 147 3.2 6.4 0.00 0.53 0.53 89 1009.6
20260506203625 9 242 3.2 12.9 0.00 0.53 0.53 90 1009.7
20260506202627 9 174 3.2 6.4 0.00 0.53 0.53 90 1009.7
20260506201627 9 153 4.8 11.3 0.00 0.53 0.53 90 1009.7
20260506200627 9 185 3.2 9.7 0.00 0.53 0.53 89 1009.6
20260506195627 9 203 4.8 9.7 0.00 0.53 0.53 89 1009.5
20260506194627 9 176 4.8 12.9 0.00 0.53 0.53 89 1009.4
20260506193627 9 167 4.8 14.5 0.00 0.53 0.53 89 1009.3
20260506192627 9 205 3.2 12.9 0.00 0.53 0.53 89 1009.0
20260506191627 9 176 4.8 12.9 0.00 0.53 0.53 90 1008.9
20260506190626 9 276 4.8 11.3 0.00 0.53 0.53 90 1008.7
20260506185626 9 207 4.8 12.9 0.00 0.53 0.53 91 1008.6
20260506184626 9 162 3.2 8.0 0.00 0.53 0.53 91 1008.6
20260506183626 9 196 3.2 6.4 0.00 0.53 0.53 91 1008.3
20260506182626 10 197 1.6 6.4 0.00 0.53 0.53 91 1008.2
20260506181626 10 227 6.4 12.9 0.00 0.53 0.53 92 1008.2
20260506180626 10 176 4.8 11.3 0.00 0.53 0.53 91 1008.2
20260506175625 10 127 4.8 11.3 0.00 0.53 0.53 91 1008.0
20260506174627 10 219 3.2 8.0 0.00 0.53 0.53 91 1007.8
20260506173627 10 274 4.8 9.7 0.03 0.53 0.53 91 1007.8
20260506172627 10 178 4.8 11.3 0.03 0.53 0.53 91 1007.6
20260506171627 10 144 3.2 12.9 0.03 0.53 0.53 91 1007.4
20260506170627 10 208 4.8 16.1 0.05 0.53 0.53 91 1007.4
20260506165627 10 187 1.6 12.9 0.05 0.53 0.53 91 1007.3
20260506164627 10 266 4.8 17.7 0.05 0.53 0.53 92 1007.0
20260506163627 9 262 4.8 19.3 0.05 0.51 0.51 92 1007.2
20260506162626 9 163 8.0 17.7 0.10 0.51 0.51 91 1007.1
20260506161625 10 145 4.8 16.1 0.13 0.51 0.51 91 1007.2
20260506160625 9 8 8.0 19.3 0.51 0.51 0.51 91 1007.0
20260506155627 10 208 6.4 19.3 0.51 0.51 0.51 90 1007.0
20260506154627 10 158 6.4 16.1 0.51 0.51 0.51 90 1006.9
20260506153627 11 151 9.7 25.7 0.46 0.46 0.46 89 1006.9
20260506152627 11 250 3.2 22.5 0.43 0.43 0.43 89 1006.5
20260506151627 12 255 12.9 24.1 0.41 0.41 0.41 84 1005.9
20260506150627 15 185 8.0 17.7 0.00 0.00 0.00 72 1004.9
20260506145627 16 33 0.0 0.0 0.00 0.00 0.00 71 1004.4
20260506144627 16 33 0.0 1.6 0.00 0.00 0.00 72 1004.5
20260506143627 16 33 1.6 6.4 0.00 0.00 0.00 71 1004.5
20260506142626 17 29 1.6 8.0 0.00 0.00 0.00 68 1004.6
20260506141626 17 142 0.0 1.6 0.00 0.00 0.00 73 1004.5
20260506140626 16 142 0.0 3.2 0.00 0.00 0.00 72 1004.5
20260506135626 16 136 0.0 3.2 0.00 0.15 0.00 75 1004.4
20260506134626 16 131 0.0 1.6 0.00 0.15 0.00 76 1004.8
20260506133626 16 131 1.6 3.2 0.00 0.15 0.00 76 1005.0
20260506132626 16 127 0.0 1.6 0.00 0.15 0.00 72 1005.1
20260506131627 16 126 0.0 4.8 0.00 0.15 0.00 70 1005.0